Date,TemperatureHighF,TemperatureAvgF,TemperatureLowF,DewpointHighF,DewpointAvgF,DewpointLowF,HumidityHigh,HumidityAvg,HumidityLow,PressureMaxIn,PressureMinIn,WindSpeedMaxMPH,WindSpeedAvgMPH,GustSpeedMaxMPH,PrecipitationSumIn
2013-1-1,39.1,33.7,27.8,29.2,17.7,-4.4,93,55,16,25.24,25.16,20,8,0,0.00
2013-1-2,48.9,42.5,35.5,20.5,10.1,2.9,37,27,18,25.24,25.15,14,5,0,0.00
2013-1-3,52.1,47.1,44.3,23.8,17.8,4.8,37,31,19,25.19,25.15,11,2,0,0.00
2013-1-4,53.0,46.7,40.5,37.9,23.8,8.8,89,44,22,25.21,25.13,10,4,0,0.00
2013-1-5,47.8,39.4,30.4,39.3,32.0,-2.4,98,81,12,25.19,25.04,29,12,0,0.00
2013-1-6,31.6,30.0,28.4,31.1,29.4,27.6,98,98,97,25.20,25.03,11,2,0,0.00
2013-1-7,44.7,38.8,30.3,37.8,30.8,12.6,97,75,31,25.29,25.18,22,8,0,0.00
2013-1-8,59.2,49.6,43.8,37.1,31.6,-4.8,76,53,7,25.20,25.12,27,11,0,0.00
2013-1-9,59.0,44.5,25.9,38.5,28.6,9.9,97,61,14,25.14,24.90,23,8,0,0.00
2013-1-10,26.3,24.7,23.6,25.3,23.5,22.4,96,95,95,25.21,24.94,0,0,0,0.00
2013-1-11,27.9,25.6,22.9,27.2,24.6,21.7,97,96,95,25.27,25.17,0,0,0,0.00
2013-1-12,29.6,24.7,20.1,28.6,23.5,18.5,96,95,93,25.24,25.16,0,0,0,0.00
2013-1-13,30.4,24.9,20.9,23.7,12.9,0.5,94,61,31,25.26,25.19,13,1,0,0.00
2013-1-14,36.4,30.1,21.8,12.9,8.1,-0.4,63,40,24,25.37,25.22,21,8,0,0.00
2013-1-15,49.8,40.8,30.9,26.3,20.2,9.4,61,44,28,25.41,25.33,31,12,0,0.00
2013-1-16,59.7,53.7,46.6,27.6,18.9,14.0,33,25,18,25.33,25.17,12,5,0,0.00
2013-1-17,66.3,59.3,53.8,27.7,16.3,10.1,27,19,12,25.17,25.07,13,4,0,0.00
2013-1-18,60.4,54.2,49.7,24.0,14.1,3.0,35,21,14,25.13,25.07,10,2,0,0.00
2013-1-19,57.7,52.4,48.6,17.8,5.5,-3.4,24,15,10,25.17,25.11,17,6,0,0.00
2013-1-20,56.6,51.1,47.8,12.3,2.9,-9.3,22,14,8,25.16,25.10,15,7,0,0.00
2013-1-21,61.6,53.8,49.2,18.0,0.8,-14.4,22,12,6,25.15,25.07,20,8,0,0.00
2013-1-22,57.3,52.2,48.0,15.0,7.0,-0.9,25,16,10,25.08,25.01,30,11,0,0.00
2013-1-23,51.0,46.4,38.2,37.9,22.2,2.9,92,45,14,25.05,24.99,30,12,0,0.00
2013-1-24,46.8,43.7,39.1,46.3,42.9,36.6,99,97,84,25.17,25.01,22,6,0,0.00
2013-1-25,50.5,46.2,44.0,50.0,45.8,43.7,99,99,96,25.16,25.03,9,3,0,0.00
2013-1-26,44.5,35.2,27.7,44.4,34.3,16.4,100,97,44,25.02,24.97,10,3,0,0.00
2013-1-27,31.3,28.2,26.3,30.8,27.7,25.6,98,98,96,25.17,25.01,0,0,0,0.00
2013-1-28,31.9,29.2,25.4,31.5,28.6,24.7,99,97,90,25.29,25.16,1,0,0,0.00
2013-1-29,46.6,42.1,31.9,31.6,24.3,11.8,90,51,30,25.34,25.26,28,13,0,0.00
2013-1-30,54.1,47.7,42.0,33.9,25.6,-4.9,63,45,10,25.31,25.23,28,9,0,0.00
2013-1-31,61.7,54.2,48.6,35.8,10.2,-15.9,42,19,5,25.24,25.13,9,2,0,0.00
2013-2-1,59.7,53.9,49.5,38.0,16.7,5.5,62,24,16,25.15,25.08,11,3,0,0.00
2013-2-2,54.8,51.2,49.2,29.1,20.4,13.3,40,30,22,25.19,25.15,11,5,0,0.00
2013-2-3,55.7,49.8,41.9,29.4,20.2,-1.1,45,32,12,25.16,25.05,13,7,0,0.00
2013-2-4,59.9,51.0,42.4,35.0,21.4,8.3,48,31,20,25.13,25.05,15,5,0,0.00
2013-2-5,51.7,44.7,33.9,37.5,22.1,-1.0,92,44,18,25.06,24.98,23,9,0,0.00
2013-2-6,50.4,42.9,36.6,35.7,11.1,-15.2,70,31,8,25.15,25.06,18,8,0,0.00
2013-2-7,41.3,31.9,26.1,34.3,25.2,-1.9,96,81,16,25.11,25.01,17,9,0,0.00
2013-2-8,28.4,26.2,24.8,27.4,25.1,23.2,96,95,92,25.06,24.94,12,2,0,0.00
2013-2-9,36.3,29.8,25.2,26.7,20.4,11.9,92,68,38,25.14,25.06,17,8,0,0.00
2013-2-10,39.4,34.7,30.8,26.9,21.0,13.7,78,58,47,25.14,25.07,18,8,0,0.00
2013-2-11,42.7,36.5,31.9,24.5,21.2,13.4,72,55,36,25.24,25.08,13,6,0,0.00
2013-2-12,48.3,41.5,36.5,33.1,21.0,12.9,60,44,33,25.31,25.24,15,5,0,0.00
2013-2-13,51.4,44.4,37.9,31.0,24.8,19.0,64,46,36,25.27,25.20,18,7,0,0.00
2013-2-14,57.6,48.3,41.1,31.6,24.6,17.0,64,40,23,25.21,25.15,21,7,0,0.00
2013-2-15,61.2,52.8,46.7,30.8,25.9,20.7,53,36,24,25.23,25.19,17,5,0,0.00
2013-2-16,57.5,51.1,45.8,31.2,21.0,13.1,44,31,20,25.19,25.04,20,7,0,0.00
2013-2-17,54.0,46.5,41.7,31.1,22.5,9.6,58,39,22,25.03,24.96,16,7,0,0.00
2013-2-18,48.0,40.4,26.5,37.6,16.4,-17.0,96,49,7,24.99,24.91,18,9,0,0.00
2013-2-19,30.2,25.9,22.2,29.2,24.7,20.7,96,95,94,24.92,24.80,14,1,0,0.00
2013-2-20,32.9,27.6,21.7,31.5,24.8,20.0,96,90,61,25.14,24.85,17,3,0,0.00
2013-2-21,35.4,31.2,25.9,30.8,25.8,11.4,96,82,39,25.21,25.06,22,7,0,0.00
2013-2-22,44.0,39.0,33.8,29.8,21.1,5.7,73,49,29,25.26,25.20,25,9,0,0.00
2013-2-23,40.1,33.8,28.8,38.4,27.9,13.3,97,80,44,25.23,25.11,29,12,0,0.00
2013-2-24,47.4,38.0,29.1,21.5,12.5,2.0,61,36,22,25.26,25.15,29,9,0,0.00
2013-2-25,52.2,43.6,38.3,31.7,12.4,-19.0,61,31,7,25.26,25.15,18,8,0,0.00
2013-2-26,52.1,43.7,35.3,23.5,9.5,-2.8,59,26,15,25.21,25.10,26,11,0,0.00
2013-2-27,55.1,47.6,42.4,29.9,12.2,0.2,59,25,14,25.30,25.21,21,7,0,0.00
2013-2-28,53.3,46.6,41.5,41.8,34.4,22.2,85,63,36,25.38,25.29,18,7,0,0.00
2013-3-1,60.4,51.7,44.3,40.9,34.3,18.6,76,53,25,25.37,25.23,15,6,0,0.00
2013-3-2,59.8,52.5,44.8,32.3,24.6,19.6,61,34,25,25.24,25.06,25,10,0,0.00
2013-3-3,47.6,42.1,36.8,37.6,32.8,24.4,89,70,40,25.06,25.03,21,9,0,0.00
2013-3-4,52.8,45.6,40.0,38.3,34.0,30.3,81,64,50,25.11,25.02,21,5,0,0.00
2013-3-5,47.5,39.0,30.3,33.5,20.6,-5.5,95,52,14,25.02,24.91,42,14,0,0.00
2013-3-6,34.7,32.0,28.5,33.9,30.9,25.5,97,96,87,25.08,24.91,52,11,0,0.00
2013-3-7,36.9,30.8,28.1,32.1,27.2,21.4,96,86,74,25.03,24.89,21,6,0,0.00
2013-3-8,34.8,29.8,27.4,34.0,28.7,26.4,97,96,83,25.09,24.85,25,11,0,0.00
2013-3-9,42.2,35.3,27.1,36.1,28.5,13.4,97,79,31,25.35,25.10,22,6,0,0.00
2013-3-10,54.1,46.9,39.7,29.4,15.6,-5.0,54,30,11,25.34,25.25,17,7,0,0.00
2013-3-11,60.5,52.9,47.6,30.2,18.0,-7.6,45,26,8,25.24,25.10,20,7,0,0.00
2013-3-12,65.8,56.7,49.4,37.8,28.6,13.4,52,35,20,25.11,25.06,8,4,0,0.00
2013-3-13,70.4,61.6,56.7,43.7,25.3,7.5,44,26,12,25.11,25.05,14,4,0,0.00
2013-3-14,69.5,60.7,56.7,46.6,26.3,9.2,60,29,14,25.08,25.03,18,5,0,0.00
2013-3-15,66.5,57.2,46.5,36.1,15.7,-17.9,64,25,4,25.05,24.99,18,7,0,0.00
2013-3-16,59.6,53.6,45.8,33.9,15.9,-32.1,53,27,2,25.05,24.99,23,10,0,0.00
2013-3-17,55.5,48.6,42.5,29.9,14.2,-10.0,60,28,8,25.09,25.02,25,10,0,0.00
2013-3-18,61.0,52.1,45.8,31.1,14.8,-2.5,54,25,10,25.09,25.03,22,7,0,0.00
2013-3-19,62.4,49.9,39.3,41.2,34.9,29.0,87,58,41,25.09,25.04,27,8,0,0.00
2013-3-20,49.9,44.8,39.7,44.6,37.7,25.0,97,77,41,25.10,25.04,20,7,0,0.00
2013-3-21,51.3,44.9,37.7,38.8,9.0,-36.8,97,32,2,25.08,25.02,20,9,0,0.00
2013-3-22,50.6,43.3,37.9,30.7,10.7,-9.8,70,28,9,25.08,24.99,26,11,0,0.00
2013-3-23,56.4,47.8,39.6,22.6,8.1,-5.5,35,20,11,25.12,25.05,25,9,0,0.00
2013-3-24,61.5,53.7,48.3,37.7,26.8,12.2,50,36,18,25.08,24.96,14,5,0,0.00
2013-3-25,61.4,52.7,46.6,39.1,18.7,-32.8,59,30,2,24.99,24.92,21,7,0,0.00
2013-3-26,56.8,49.5,45.0,42.8,33.1,-2.3,81,57,11,24.95,24.91,14,5,0,0.00
2013-3-27,54.1,45.8,41.4,45.7,39.6,30.9,94,79,60,25.01,24.93,14,5,0,0.00
2013-3-28,57.4,47.6,40.3,45.1,40.1,34.9,92,76,54,25.08,25.00,14,5,0,0.00
2013-3-29,61.2,51.8,45.0,46.3,37.0,22.9,83,59,33,25.07,25.04,16,6,0,0.00
2013-3-30,58.1,48.3,39.1,42.8,32.2,17.8,97,58,29,25.05,24.98,28,7,0,0.00
2013-3-31,45.8,39.5,35.8,41.1,37.0,32.4,97,91,79,25.09,24.97,40,13,0,0.00
2013-4-1,50.6,41.3,37.9,44.3,40.1,37.4,98,95,77,25.15,25.07,19,5,0,0.00
2013-4-2,56.2,47.4,40.3,46.6,40.2,28.6,98,77,57,25.17,25.10,12,3,0,0.00
2013-4-3,66.1,55.6,49.4,48.6,27.7,2.5,69,37,12,25.12,24.99,24,3,0,0.00
2013-4-4,53.3,46.5,42.6,49.1,40.2,6.9,98,85,15,25.08,24.94,26,10,0,0.00
2013-4-5,49.8,44.8,40.0,44.7,36.5,19.3,96,74,32,25.15,25.08,16,8,0,0.00
2013-4-6,48.4,44.6,38.4,44.7,33.7,8.4,92,69,21,25.17,25.13,20,9,0,0.00
2013-4-7,52.7,44.2,36.7,45.0,39.3,27.7,97,83,56,25.14,24.87,34,14,0,0.00
2013-4-8,37.3,33.0,27.5,36.3,30.3,26.5,97,90,68,25.07,24.75,43,12,0,0.00
2013-4-9,49.1,42.1,33.9,31.2,26.6,20.6,76,55,35,25.17,25.05,27,10,0,0.00
2013-4-10,63.0,53.7,47.2,40.3,30.2,20.5,58,41,32,25.21,25.07,24,11,0,0.00
2013-4-11,54.1,49.1,41.8,40.9,35.9,19.0,76,61,25,25.07,24.88,24,10,0,0.00
2013-4-12,65.5,56.0,49.3,38.8,33.4,24.2,62,43,28,24.93,24.87,16,3,0,0.00
2013-4-13,61.6,54.9,48.8,41.7,23.4,-24.6,75,36,3,24.88,24.81,26,12,0,0.00
2013-4-14,56.2,49.1,36.6,37.1,23.1,-4.1,95,43,9,24.89,24.81,32,14,0,0.00
2013-4-15,36.6,31.2,24.7,35.4,28.7,18.2,97,91,47,24.96,24.81,39,16,0,0.00
2013-4-16,36.2,28.0,25.8,28.7,25.8,24.3,96,91,72,25.14,24.97,11,3,0,0.00
2013-4-17,42.5,42.5,42.5,23.7,23.7,23.7,47,47,47,0.00,40.00,7,7,0,0.00
2013-4-18,56.4,50.5,47.0,29.7,26.6,22.3,50,40,27,25.25,25.21,12,5,0,0.00
2013-4-19,61.6,54.0,45.7,38.0,29.9,11.7,48,40,22,25.21,25.08,22,7,0,0.00
2013-4-20,70.1,59.1,49.2,41.9,29.6,-13.7,67,38,4,25.08,24.99,20,6,0,0.00
2013-4-21,71.0,64.1,56.2,35.0,20.6,-39.9,39,22,1,25.02,24.93,11,2,0,0.00
2013-4-22,70.6,62.6,56.8,39.5,30.8,18.8,40,30,20,24.95,24.86,14,5,0,0.00
2013-4-23,70.4,61.3,55.4,43.6,28.0,7.1,55,29,13,24.89,24.84,15,5,0,0.00
2013-4-24,65.0,58.4,50.4,47.1,36.2,23.1,77,45,28,24.86,24.79,14,3,0,0.00
2013-4-25,64.8,58.5,51.6,48.2,32.6,16.3,61,39,20,25.05,24.86,14,4,0,0.00
2013-4-26,67.3,58.7,53.9,36.1,22.2,13.1,46,25,17,25.14,25.06,12,4,0,0.00
2013-4-27,73.1,64.8,59.5,37.6,28.6,16.2,34,26,16,25.14,25.03,13,4,0,0.00
2013-4-28,76.1,67.3,61.5,39.5,16.4,-26.4,44,17,2,25.03,24.89,11,4,0,0.00
2013-4-29,73.0,65.6,59.7,42.2,33.7,14.5,52,31,15,24.88,24.80,18,8,0,0.00
2013-4-30,65.9,59.6,54.2,40.3,29.9,0.9,56,34,11,24.85,24.75,18,8,0,0.00
2013-5-1,70.2,61.7,54.3,33.9,24.9,1.4,37,25,11,25.07,24.86,16,5,0,0.00
2013-5-2,75.5,65.3,60.0,35.3,27.3,7.1,33,24,11,25.12,25.06,16,5,0,0.00
2013-5-3,69.4,63.4,59.7,31.8,22.9,-5.4,29,22,6,25.06,24.84,18,7,0,0.00
2013-5-4,70.5,62.2,50.2,31.7,25.6,15.4,31,25,16,24.83,24.62,23,6,0,0.00
2013-5-5,50.4,40.1,36.0,39.7,35.0,17.7,99,86,27,24.86,24.58,43,21,0,0.00
2013-5-6,41.5,39.3,37.6,41.2,39.0,37.3,99,99,98,25.02,24.86,34,9,0,0.00
2013-5-7,53.0,43.1,37.9,45.7,41.0,37.6,100,93,67,25.08,25.01,15,3,0,0.00
2013-5-8,55.2,47.4,41.9,46.7,40.0,34.5,96,76,58,25.12,25.07,16,5,0,0.00
2013-5-9,61.2,52.6,46.3,48.3,38.6,27.1,75,59,41,25.12,25.08,13,5,0,0.00
2013-5-10,68.9,61.6,53.8,49.0,42.2,37.8,73,50,35,25.13,25.08,16,6,0,0.00
2013-5-11,78.0,69.5,61.6,48.5,40.5,29.1,61,36,22,25.10,25.02,12,4,0,0.00
2013-5-12,78.8,71.2,67.3,48.8,32.8,21.9,42,25,17,25.05,24.96,18,6,0,0.00
2013-5-13,77.0,67.5,53.3,43.9,30.1,14.5,60,27,13,24.99,24.89,17,6,0,0.00
2013-5-14,64.3,57.5,47.1,48.3,35.4,13.6,67,45,17,25.01,24.86,25,13,0,0.00
2013-5-15,59.7,55.3,50.4,38.2,17.7,-24.0,56,29,3,25.01,24.97,24,13,0,0.00
2013-5-16,53.2,47.1,41.5,45.0,38.2,8.2,96,73,16,25.01,24.97,21,13,0,0.00
2013-5-17,52.9,45.7,40.1,39.7,36.2,17.8,96,71,35,25.07,24.98,23,12,0,0.00
2013-5-18,59.8,52.4,44.7,39.0,17.8,-9.3,70,30,8,25.14,25.07,25,10,0,0.00
2013-5-19,63.9,55.5,45.9,40.7,33.9,15.4,74,45,24,25.08,25.02,18,8,0,0.00
2013-5-20,73.4,62.4,54.1,34.3,27.6,19.4,38,27,17,25.02,24.95,18,8,0,0.00
2013-5-21,60.9,53.9,43.9,43.9,18.1,-42.0,62,32,1,24.94,24.88,29,13,0,0.00
2013-5-22,52.6,43.4,32.5,29.4,12.5,-46.5,62,36,1,24.94,24.86,28,9,0,0.00
2013-5-23,51.1,39.2,28.4,34.9,28.3,16.3,95,68,35,25.08,24.92,22,8,0,0.00
2013-5-24,59.8,51.1,45.7,40.2,22.0,-0.7,64,33,11,25.07,24.96,15,5,0,0.00
2013-5-25,52.5,47.0,41.7,36.7,26.4,1.0,72,45,15,25.05,24.95,23,12,0,0.00
2013-5-26,55.2,45.6,39.6,44.9,38.4,14.9,96,77,27,25.12,25.05,23,12,0,0.00
2013-5-27,53.6,48.5,43.7,46.8,37.6,12.5,96,70,25,25.13,25.02,28,13,0,0.00
2013-5-28,57.5,51.3,45.7,49.8,42.9,16.3,98,78,20,25.02,24.97,28,12,0,0.00
2013-5-29,58.9,52.3,43.8,50.8,33.0,0.9,97,56,11,24.98,24.92,25,11,0,0.00
2013-5-30,64.5,57.5,49.5,25.0,4.3,-29.3,25,13,2,24.99,24.95,21,9,0,0.00
2013-5-31,70.5,63.3,55.1,36.3,23.3,-29.4,35,24,2,25.00,24.94,20,8,0,0.00
2013-6-1,76.7,69.9,63.4,39.0,29.1,17.2,32,22,16,24.95,24.80,16,7,0,0.00
2013-6-2,79.7,70.9,65.0,47.0,37.3,15.3,38,30,14,24.79,24.66,9,3,0,0.00
2013-6-3,72.4,67.3,60.1,49.7,34.1,12.1,57,32,12,24.79,24.67,14,5,0,0.00
2013-6-4,77.1,69.1,61.9,52.1,43.7,34.5,55,41,25,24.86,24.78,7,2,0,0.00
2013-6-5,78.5,71.8,65.8,52.3,44.2,30.4,46,37,25,24.87,24.83,10,1,0,0.00
2013-6-6,83.8,73.4,65.8,52.0,46.8,38.3,48,39,27,24.84,24.81,14,3,0,0.00
2013-6-7,86.0,78.1,71.0,45.7,34.4,16.2,36,21,11,24.83,24.77,15,9,0,0.00
2013-6-8,92.2,83.1,75.4,51.9,38.6,10.7,36,22,7,24.78,24.68,16,5,0,0.00
2013-6-9,79.8,73.6,59.4,53.3,35.1,-2.0,41,26,7,24.73,24.67,21,5,0,0.00
2013-6-10,69.9,60.5,54.9,50.9,29.5,2.5,60,35,9,24.89,24.73,29,11,0,0.00
2013-6-11,74.2,64.3,56.5,53.6,43.3,20.2,61,47,19,24.93,24.87,28,7,0,0.00
2013-6-12,70.7,62.2,51.0,39.6,19.3,-23.8,46,21,3,24.95,24.88,19,8,0,0.00
2013-6-13,68.1,58.0,50.9,38.4,17.5,-3.5,42,22,9,25.05,24.95,28,9,0,0.00
2013-6-14,69.5,61.7,54.5,37.1,20.2,-16.1,39,23,4,24.99,24.87,13,6,0,0.00
2013-6-15,72.5,62.7,54.9,39.7,15.7,-20.3,40,20,3,24.95,24.84,20,7,0,0.00
2013-6-16,67.1,60.0,55.3,37.2,27.1,19.1,38,28,22,25.05,24.95,26,12,0,0.00
2013-6-17,66.5,59.4,55.3,44.5,30.1,19.6,55,33,23,25.05,24.99,22,11,0,0.00
2013-6-18,56.2,48.3,36.1,42.8,33.6,15.9,93,60,22,24.99,24.94,27,12,0,0.00
2013-6-19,60.3,48.3,36.9,40.1,30.7,17.1,87,53,26,25.09,24.98,29,10,0,0.00
2013-6-20,64.4,54.4,47.6,38.1,25.5,15.1,59,34,20,25.03,24.98,24,9,0,0.00
2013-6-21,69.2,59.0,49.3,40.0,27.8,-2.3,57,32,8,24.99,24.93,25,9,0,0.00
2013-6-22,72.5,62.4,54.8,41.6,29.6,-11.5,61,31,5,24.94,24.88,22,9,0,0.00
2013-6-23,59.5,52.5,47.3,51.5,44.4,30.5,97,75,40,24.88,24.82,25,14,0,0.00
2013-6-24,60.2,53.5,49.4,51.4,48.5,41.3,99,84,59,24.95,24.83,14,5,0,0.00
2013-6-25,68.4,59.1,53.1,58.0,53.1,47.3,90,81,68,25.00,24.94,15,6,0,0.00
2013-6-26,75.1,65.7,57.8,59.5,55.0,50.5,83,69,54,25.01,24.95,15,4,0,0.00
2013-6-27,81.6,72.7,66.0,58.3,52.5,40.8,63,50,37,25.01,24.97,16,3,0,0.00
2013-6-28,85.8,76.3,71.1,54.7,47.4,31.6,54,37,23,24.99,24.90,18,5,0,0.00
2013-6-29,82.6,75.0,70.0,43.8,36.3,26.6,32,25,19,24.92,24.84,22,10,0,0.00
2013-6-30,85.9,78.4,72.5,44.8,33.4,15.9,31,20,10,24.86,24.78,14,4,0,0.00
2013-7-1,92.0,81.0,73.9,48.7,33.0,-9.6,35,19,3,24.83,24.78,12,4,0,0.00
2013-7-2,90.8,84.9,78.2,49.9,29.7,-28.2,30,15,1,24.85,24.82,8,2,0,0.00
2013-7-3,91.5,82.2,77.6,50.3,40.0,29.2,33,23,16,24.82,24.74,12,4,0,0.00
2013-7-4,86.8,79.0,70.5,55.7,47.4,31.3,46,33,21,24.75,24.71,22,7,0,0.00
2013-7-5,77.9,71.9,64.0,46.8,27.4,-13.1,36,21,3,24.74,24.70,20,9,0,0.00
2013-7-6,80.0,71.5,66.3,46.5,15.3,-15.3,37,13,3,24.75,24.71,13,6,0,0.00
2013-7-7,81.2,70.8,65.6,40.0,8.5,-16.8,26,10,3,24.81,24.74,18,7,0,0.00
2013-7-8,82.1,70.9,65.1,24.0,-2.6,-34.0,13,6,1,24.94,24.81,19,8,0,0.00
2013-7-9,86.7,77.9,71.5,35.3,27.3,-21.2,21,16,2,24.96,24.90,10,4,0,0.00
2013-7-10,81.7,74.1,68.9,42.3,24.5,-1.3,31,17,5,24.91,24.84,16,6,0,0.00
2013-7-11,79.8,71.3,64.4,43.0,20.8,0.0,31,16,7,24.85,24.82,17,5,0,0.00
2013-7-12,79.6,70.2,64.9,43.7,22.5,-10.8,41,19,4,24.87,24.83,13,4,0,0.00
2013-7-13,78.3,72.0,66.2,37.0,27.9,10.2,29,20,11,24.91,24.87,10,3,0,0.00
2013-7-14,77.5,70.7,65.0,41.2,29.0,2.3,34,22,8,24.92,24.86,7,3,0,0.00
2013-7-15,76.2,69.6,63.3,42.9,32.9,16.2,34,26,15,24.83,24.78,17,6,0,0.00
2013-7-16,75.1,67.3,61.6,48.2,23.6,-5.6,41,21,6,24.90,24.80,15,6,0,0.00
2013-7-17,78.5,69.6,64.1,45.0,25.6,-12.7,39,22,4,24.99,24.94,15,2,0,0.00
2013-7-18,81.7,71.4,65.6,36.8,21.6,0.2,28,16,6,24.97,24.91,10,3,0,0.00
2013-7-19,85.6,76.4,70.7,41.2,19.1,-19.6,28,13,2,24.91,24.80,9,3,0,0.00
2013-7-20,89.6,79.9,75.6,41.0,22.3,-31.0,25,14,1,24.81,24.72,8,3,0,0.00
2013-7-21,87.8,79.9,71.4,45.6,34.5,22.6,38,20,13,24.77,24.71,10,2,0,0.00
2013-7-22,81.6,72.6,67.6,52.7,41.2,-7.2,58,34,4,24.87,24.75,17,5,0,0.00
2013-7-23,80.8,72.8,67.6,50.8,44.1,27.3,46,36,21,24.93,24.88,10,3,0,0.00
2013-7-24,83.4,74.3,67.9,49.8,46.8,43.9,47,38,29,24.91,24.87,8,3,0,0.00
2013-7-25,84.1,75.5,69.0,49.9,45.9,42.2,43,35,26,24.94,24.87,11,2,0,0.00
2013-7-26,83.5,75.3,70.4,47.0,42.2,18.2,40,31,12,24.97,24.93,10,3,0,0.00
2013-7-27,83.9,74.3,67.4,46.5,35.9,-12.0,39,26,3,24.94,24.82,13,5,0,0.00
2013-7-28,81.4,72.7,67.7,48.2,40.0,28.6,40,31,22,24.83,24.78,18,6,0,0.00
2013-7-29,79.7,71.0,66.5,49.3,25.9,10.8,39,19,10,24.92,24.79,20,8,0,0.00
2013-7-30,79.6,72.0,65.7,45.8,38.5,22.0,45,31,15,24.97,24.92,8,2,0,0.00
2013-7-31,78.0,67.9,58.0,41.9,32.0,5.6,41,27,11,24.97,24.93,19,6,0,0.00
2013-8-1,68.9,62.5,57.3,37.5,22.9,1.5,36,24,8,25.01,24.94,19,8,0,0.00
2013-8-2,72.3,65.8,60.5,33.6,15.7,1.2,27,15,8,24.96,24.90,14,7,0,0.00
2013-8-3,76.7,68.4,63.0,43.3,22.4,-1.4,42,19,7,24.92,24.87,10,3,0,0.00
2013-8-4,77.3,68.5,63.9,43.6,26.1,11.1,43,22,11,24.92,24.88,9,3,0,0.00
2013-8-5,78.9,69.2,63.9,42.5,21.1,2.5,36,17,8,24.93,24.88,12,4,0,0.00
2013-8-6,76.5,67.5,60.9,47.2,28.3,9.2,44,25,11,24.93,24.88,12,3,0,0.00
2013-8-7,69.9,61.6,58.1,50.6,33.4,8.4,66,37,12,24.99,24.93,12,5,0,0.00
2013-8-8,70.2,61.8,57.1,47.6,33.7,16.4,56,36,20,24.98,24.89,10,4,0,0.00
2013-8-9,71.5,63.3,57.0,49.1,36.6,4.7,57,38,11,24.94,24.88,12,5,0,0.00
2013-8-10,70.2,61.6,56.7,52.1,40.4,22.2,74,47,23,24.99,24.93,14,7,0,0.00
2013-8-11,73.1,63.8,58.7,47.4,38.6,27.5,50,40,28,24.99,24.92,13,3,0,0.00
2013-8-12,76.0,67.0,60.2,43.7,40.5,35.8,49,38,28,24.95,24.91,11,3,0,0.00
2013-8-13,81.1,71.6,64.9,41.3,34.5,20.4,35,26,16,24.94,24.90,10,3,0,0.00
2013-8-14,81.0,72.4,66.7,41.2,28.3,9.0,30,20,10,24.91,24.86,9,3,0,0.00
2013-8-15,81.4,72.5,67.2,48.3,30.2,7.9,42,22,8,24.90,24.86,12,5,0,0.00
2013-8-16,82.0,73.5,69.5,49.2,25.4,6.3,42,18,8,24.92,24.88,12,4,0,0.00
2013-8-17,78.4,70.4,64.5,49.8,34.4,18.0,59,29,11,24.91,24.84,17,6,0,0.00
2013-8-18,84.3,74.6,68.3,44.2,37.5,27.0,40,27,16,24.87,24.80,11,3,0,0.00
2013-8-19,84.8,74.3,67.0,49.3,45.4,38.1,48,36,27,24.85,24.80,16,4,0,0.00
2013-8-20,78.9,71.1,60.6,50.7,42.9,18.6,52,37,17,24.82,24.78,9,2,0,0.00
2013-8-21,75.0,67.8,61.8,40.4,28.7,8.2,39,24,10,24.85,24.81,13,4,0,0.00
2013-8-22,73.1,66.1,60.7,48.5,36.1,14.7,53,34,14,24.86,24.83,22,6,0,0.00
2013-8-23,75.9,67.7,62.4,41.6,33.5,-0.3,41,29,7,24.86,24.80,12,5,0,0.00
2013-8-24,70.3,62.9,55.4,49.3,40.2,18.5,74,45,19,24.88,24.81,16,7,0,0.00
2013-8-25,71.7,63.4,58.0,48.3,43.0,36.7,61,48,39,24.92,24.87,16,5,0,0.00
2013-8-26,73.7,65.0,57.3,50.4,32.0,-10.7,60,34,5,24.95,24.87,21,5,0,0.00
2013-8-27,76.8,67.2,61.8,48.8,39.8,20.3,55,38,18,24.87,24.80,10,4,0,0.00
2013-8-28,77.4,67.7,62.1,50.6,37.0,19.2,57,34,17,24.89,24.82,8,3,0,0.00
2013-8-29,77.5,68.8,62.7,48.8,36.7,15.8,50,32,15,24.97,24.89,13,4,0,0.00
2013-8-30,83.0,73.3,66.8,50.0,46.8,41.2,52,39,29,24.98,24.90,10,3,0,0.00
2013-8-31,81.1,72.0,65.3,57.5,47.2,26.3,76,44,19,24.91,24.84,13,4,0,0.00
2013-9-1,74.3,65.6,60.2,59.6,57.3,54.3,89,75,55,24.87,24.82,15,4,0,0.00
2013-9-2,73.1,63.7,58.8,58.7,56.0,53.7,94,77,53,24.90,24.85,11,3,0,0.00
2013-9-3,72.8,64.8,56.5,55.9,46.6,38.1,86,53,38,24.94,24.89,13,3,0,0.00
2013-9-4,77.0,68.2,61.3,51.9,48.0,42.6,70,50,36,24.95,24.89,13,4,0,0.00
2013-9-5,75.4,67.9,63.1,48.2,35.4,5.1,58,32,9,24.92,24.88,17,4,0,0.00
2013-9-6,79.8,69.8,63.5,46.5,42.7,24.9,50,38,20,24.91,24.83,11,3,0,0.00
2013-9-7,83.1,72.7,65.8,45.3,33.3,-0.3,44,25,6,24.86,24.81,10,3,0,0.00
2013-9-8,82.5,73.9,69.1,40.5,29.3,8.8,32,20,9,24.83,24.77,9,4,0,0.00
2013-9-9,82.1,73.5,68.5,44.7,35.8,21.6,35,26,15,24.79,24.74,21,6,0,0.00
2013-9-10,79.7,71.2,66.9,45.8,31.8,23.6,35,24,17,24.83,24.74,19,8,0,0.00
2013-9-11,76.6,69.0,65.4,47.2,30.5,10.8,46,25,11,24.90,24.83,12,6,0,0.00
2013-9-12,80.5,71.0,63.9,46.1,37.4,29.8,38,30,21,24.90,24.85,14,4,0,0.00
2013-9-13,76.5,70.4,67.2,42.0,33.0,17.7,34,26,14,24.86,24.76,23,12,0,0.00
2013-9-14,79.6,72.9,67.8,42.8,27.8,16.4,32,19,13,24.78,24.72,16,6,0,0.00
2013-9-15,75.8,68.5,64.3,48.0,32.9,7.3,52,29,10,24.79,24.72,11,4,0,0.00
2013-9-16,75.3,66.6,55.9,49.8,37.7,9.4,55,37,11,24.83,24.77,10,4,0,0.00
2013-9-17,58.0,51.3,43.9,44.4,36.2,14.9,89,60,20,24.92,24.78,26,14,0,0.00
2013-9-18,68.8,57.7,49.9,41.6,35.9,8.5,71,47,11,24.93,24.88,19,7,0,0.00
2013-9-19,78.3,66.4,56.1,39.2,25.0,-15.3,36,22,4,24.89,24.80,10,4,0,0.00
2013-9-20,65.7,60.2,51.7,51.6,37.2,21.5,86,47,22,24.82,24.75,18,9,0,0.00
2013-9-21,53.0,46.4,39.0,48.8,44.1,25.9,98,92,35,24.91,24.80,22,12,0,0.00
2013-9-22,54.9,47.2,39.1,42.4,37.8,8.1,98,73,15,25.04,24.91,22,9,0,0.00
2013-9-23,70.6,60.1,51.3,46.4,37.2,5.4,65,45,14,25.05,24.95,16,6,0,0.00
2013-9-24,67.0,57.3,38.3,48.9,38.5,17.8,96,53,19,24.95,24.85,24,9,0,0.00
2013-9-25,47.4,40.7,36.6,37.8,34.4,28.4,93,78,64,24.93,24.85,31,15,0,0.00
2013-9-26,50.9,44.8,38.0,33.6,28.2,20.2,82,53,38,25.04,24.88,23,9,0,0.00
2013-9-27,60.0,51.1,44.2,32.2,25.2,16.4,50,37,23,25.11,25.04,19,6,0,0.00
2013-9-28,70.2,61.0,53.2,31.1,22.7,-9.5,32,24,6,25.09,25.02,11,2,0,0.00
2013-9-29,71.3,62.5,57.6,44.1,33.5,17.2,51,34,19,25.05,25.00,19,8,0,0.00
2013-9-30,68.1,59.7,56.2,50.1,36.8,17.7,73,44,18,25.01,24.93,16,7,0,0.00
2013-10-1,68.0,59.2,47.9,47.8,31.6,-11.4,96,42,5,24.96,24.91,16,5,0,0.00
2013-10-2,64.6,58.4,51.5,36.2,13.3,-30.4,43,19,2,24.95,24.90,24,7,0,0.00
2013-10-3,55.1,49.5,44.4,29.4,15.7,-45.5,47,31,1,24.98,24.93,28,10,0,0.00
2013-10-4,64.5,54.5,47.3,25.6,18.9,10.5,34,25,18,25.10,24.97,22,7,0,0.00
2013-10-5,70.6,60.3,53.0,23.1,17.3,10.1,26,19,13,25.17,25.10,16,4,0,0.00
2013-10-6,73.0,62.5,57.0,24.5,16.5,9.1,23,17,11,25.09,24.99,16,5,0,0.00
2013-10-7,69.3,61.3,53.0,28.4,17.8,5.1,30,19,11,24.99,24.88,12,4,0,0.00
2013-10-8,64.1,55.0,43.1,39.7,24.3,8.3,62,33,15,24.89,24.70,26,8,0,0.00
2013-10-9,44.0,39.9,33.5,38.6,35.1,30.9,96,84,62,24.87,24.61,24,11,0,0.00
2013-10-10,57.3,48.6,42.4,40.8,33.2,30.6,70,55,39,25.01,24.88,21,6,0,0.00
2013-10-11,60.7,52.5,47.2,38.6,33.1,27.6,58,48,35,25.03,24.97,11,3,0,0.00
2013-10-12,62.1,51.7,43.4,39.3,33.7,10.9,74,51,21,24.98,24.92,21,7,0,0.00
2013-10-13,53.4,46.8,40.5,38.7,36.1,32.2,88,67,49,25.09,24.90,24,8,0,0.00
2013-10-14,61.3,53.1,46.4,36.1,31.3,25.7,64,44,32,25.11,25.03,15,7,0,0.00
2013-10-15,62.3,56.2,51.5,33.0,28.8,19.4,47,36,20,25.04,24.97,10,4,0,0.00
2013-10-16,66.2,57.3,53.4,30.0,26.2,22.5,40,30,21,25.07,25.01,17,6,0,0.00
2013-10-17,65.6,57.7,53.7,28.9,25.4,20.5,35,29,22,25.06,24.98,11,3,0,0.00
2013-10-18,67.1,60.3,54.5,27.6,22.4,13.3,31,23,18,25.03,24.99,12,4,0,0.00
2013-10-19,72.6,63.3,58.3,31.0,24.7,17.8,31,23,14,25.03,24.98,12,4,0,0.00
2013-10-20,70.0,62.6,59.0,30.3,24.5,16.0,33,24,17,24.99,24.91,10,2,0,0.00
2013-10-21,68.5,62.7,58.5,25.1,18.7,10.5,26,18,14,24.95,24.91,16,5,0,0.00
2013-10-22,69.9,63.4,58.8,30.8,24.3,13.2,29,23,15,24.96,24.91,12,5,0,0.00
2013-10-23,70.0,63.8,60.7,31.9,24.6,17.5,30,23,17,24.92,24.88,11,4,0,0.00
2013-10-24,70.2,63.9,59.8,32.1,21.8,15.1,25,20,16,25.00,24.91,8,3,0,0.00
2013-10-25,69.3,62.7,59.1,29.3,23.7,15.9,29,23,17,25.06,25.01,8,2,0,0.00
2013-10-26,67.8,61.0,57.6,32.3,24.7,15.1,38,26,14,25.06,25.00,11,4,0,0.00
2013-10-27,61.7,53.1,34.9,37.5,29.4,16.7,97,45,20,25.00,24.68,40,12,0,0.00
2013-10-28,36.0,34.9,33.4,35.5,34.3,32.6,98,98,97,24.95,24.67,32,16,0,0.00
2013-10-29,40.8,37.3,35.5,40.5,36.6,34.3,99,98,89,25.07,24.95,14,6,0,0.00
2013-10-30,48.0,42.6,37.5,41.4,36.3,31.5,89,79,64,25.15,25.07,14,4,0,0.00
2013-10-31,58.0,50.3,43.4,36.0,29.0,13.3,71,45,19,25.15,25.09,13,6,0,0.00
2013-11-1,65.9,59.7,55.8,32.3,18.4,0.6,39,21,9,25.11,25.00,23,6,0,0.00
2013-11-2,63.5,56.9,49.4,35.4,23.0,13.6,58,28,18,25.00,24.89,19,8,0,0.00
2013-11-3,52.9,46.3,37.5,32.4,11.0,-19.5,72,29,5,24.96,24.88,18,5,0,0.00
2013-11-4,44.0,40.4,36.3,26.9,18.3,4.0,54,41,21,25.10,24.89,21,10,0,0.00
2013-11-5,52.7,48.0,42.4,23.2,17.5,12.8,37,29,23,25.22,25.09,23,10,0,0.00
2013-11-6,65.8,56.8,49.6,34.0,22.1,4.8,53,28,12,25.21,25.14,17,7,0,0.00
2013-11-7,64.0,57.8,54.2,22.8,13.8,3.5,26,18,11,25.13,25.04,10,2,0,0.00
2013-11-8,65.1,58.4,54.9,24.7,18.0,-4.2,27,21,8,25.03,24.94,12,4,0,0.00
2013-11-9,63.9,56.4,50.8,25.5,14.4,-16.5,27,20,5,24.99,24.95,22,6,0,0.00
2013-11-10,62.6,54.5,50.9,24.4,12.9,-5.4,33,20,9,25.06,24.99,23,10,0,0.00
2013-11-11,62.6,56.0,51.7,25.3,21.5,14.7,35,26,19,25.10,25.06,19,8,0,0.00
2013-11-12,66.3,58.9,52.6,35.2,25.3,14.3,40,28,16,25.19,25.11,21,4,0,0.00
2013-11-13,60.0,55.4,51.5,36.7,28.2,6.6,56,36,12,25.16,25.07,21,9,0,0.00
2013-11-14,62.3,54.8,46.4,38.7,27.9,-9.2,63,38,7,25.08,24.84,25,9,0,0.00
2013-11-15,48.4,42.6,36.2,35.2,32.3,26.6,87,68,51,24.84,24.76,29,10,0,0.00
2013-11-16,48.1,43.3,38.6,36.8,29.0,7.1,87,59,21,24.94,24.83,22,11,0,0.00
2013-11-17,51.0,44.5,38.8,40.6,36.9,32.4,87,75,63,25.07,24.95,13,4,0,0.00
2013-11-18,49.4,43.3,40.2,40.3,36.7,32.7,85,78,64,25.11,25.05,20,8,0,0.00
2013-11-19,49.2,43.1,38.3,43.3,39.9,34.2,97,89,72,25.09,25.01,13,6,0,0.00
2013-11-20,48.5,43.9,38.3,47.7,42.9,35.1,98,96,79,25.00,24.89,18,5,0,0.00
2013-11-21,41.1,38.0,34.2,39.8,35.5,29.2,98,91,77,24.98,24.89,21,8,0,0.00
2013-11-22,44.9,40.1,34.1,35.3,27.7,20.1,92,63,43,25.04,24.97,18,6,0,0.00
2013-11-23,49.0,42.1,38.5,35.8,30.1,23.6,82,63,51,25.10,25.01,14,5,0,0.00
2013-11-24,39.6,39.2,38.5,31.7,30.4,29.1,73,70,68,25.10,25.10,14,12,0,0.00
2013-11-26,58.4,57.4,55.6,27.5,26.0,23.9,31,30,28,25.07,25.07,11,6,0,0.00
2013-12-2,61.9,61.9,61.9,13.8,13.8,13.8,15,15,15,0.00,40.00,10,10,0,0.00
2013-12-3,31.5,27.1,25.2,26.0,23.0,16.8,95,85,65,24.93,24.80,23,12,0,0.00
2013-12-4,33.9,27.8,23.0,19.7,12.5,0.2,87,53,30,25.08,24.94,23,7,0,0.00
2013-12-5,33.3,27.2,23.4,9.8,1.5,-6.6,51,33,18,25.17,25.07,19,6,0,0.00
2013-12-6,33.8,28.8,23.7,30.7,17.4,-18.8,96,69,11,25.19,25.05,27,11,0,0.00
2013-12-7,32.1,25.2,18.9,31.3,24.0,17.2,97,95,93,25.18,24.98,24,3,0,0.00
2013-12-8,31.3,25.0,15.7,26.7,8.1,-20.4,94,57,10,25.27,25.17,18,1,0,0.00
2013-12-9,44.0,34.8,27.2,13.9,-3.2,-23.3,31,20,9,25.34,25.24,28,11,0,0.00
2013-12-10,51.0,46.8,43.8,8.6,3.8,-7.3,21,17,10,25.25,25.15,11,5,0,0.00
2013-12-11,54.1,48.9,44.4,16.2,9.8,-0.1,26,20,13,25.16,25.12,14,5,0,0.00
2013-12-12,54.4,47.0,42.9,18.1,6.3,-2.4,30,19,14,25.18,25.13,20,8,0,0.00
2013-12-13,48.7,45.5,41.2,22.0,11.2,4.2,41,25,17,25.24,25.15,16,7,0,0.00
2013-12-14,59.6,52.5,41.1,25.7,15.0,-12.2,47,26,5,25.31,25.25,17,7,0,0.00
2013-12-15,65.8,60.2,55.8,13.4,1.7,-12.3,14,9,5,25.29,25.15,11,4,0,0.00
2013-12-16,68.2,63.0,59.4,20.4,9.5,-1.8,19,12,7,25.15,25.05,12,5,0,0.00
2013-12-17,67.1,62.5,57.9,24.5,16.7,6.9,22,17,10,25.09,24.98,13,4,0,0.00
2013-12-18,60.7,51.6,33.0,30.8,21.8,14.3,85,34,17,24.97,24.73,39,10,0,0.00
2013-12-19,34.6,30.9,27.6,31.7,27.5,15.5,97,88,45,24.99,24.65,29,4,0,0.00
2013-12-20,48.2,38.6,28.7,31.0,12.1,0.5,52,34,18,25.08,24.97,27,11,0,0.00
2013-12-21,49.4,46.3,43.4,35.6,31.2,25.6,69,56,44,25.07,25.00,28,11,0,0.00
2013-12-22,52.9,48.5,45.0,28.5,24.2,18.0,51,39,27,25.23,25.07,31,14,0,0.00
2013-12-23,58.9,52.9,49.2,32.3,24.9,20.3,46,34,26,25.31,25.23,17,7,0,0.00
2013-12-24,58.2,54.4,49.5,32.2,22.0,2.3,48,29,11,25.24,25.15,26,11,0,0.00
2013-12-25,64.9,58.5,53.6,26.1,17.7,6.7,27,20,13,25.20,25.15,14,6,0,0.00
2013-12-26,65.4,58.4,54.6,15.6,7.5,-2.8,18,13,8,25.17,25.12,10,3,0,0.00
2013-12-27,63.8,58.6,54.9,14.4,-4.4,-17.7,18,8,4,25.16,25.05,14,4,0,0.00
2013-12-28,56.1,52.7,49.6,6.7,-1.4,-10.7,16,11,6,25.05,25.00,16,8,0,0.00